[[{"header":{"parameterUnit":"m.s-1","parameterCategory":1,"la1":30.2991,"la2":30.254,"lo1":-89.0895,"lo2":-89.0444,"dy":0.0017,"dx":0.0017,"nx":28,"ny":28,"refTime":"2025-01-04T03:00:00:Z","depth":0,"parameterNumber":2,"parameterNumberName":"U-component_of_WINDS"},"data":[0,0,0,0,0,0,0,0,0,0,0,0,0,0,0,0,0,0,0,0,0,0,0,0,0,0,0,0,0,0,0,0,0,0,0,0,0,0,0,0,0,0,0,0,0,0,0,0,0,0,0,0,0,0,0,0,0,0,-5.6288,-5.6289,0,-5.6419,-5.6421,-5.6422,-5.6445,-5.6444,-5.6443,-5.6442,-5.6575,-5.6579,-5.6584,0,0,0,0,0,0,0,0,0,0,0,0,0,-5.6055,-5.6059,-5.6288,-5.6289,-5.6291,-5.6419,-5.6421,-5.6423,-5.6445,-5.6444,-5.6442,-5.6441,-5.6573,-5.6578,-5.6584,0,0,0,0,0,0,0,0,0,0,0,0,0,-5.6168,-5.606,-5.6287,-5.6318,-5.6322,-5.6419,-5.6421,-5.6423,-5.6445,-5.6444,-5.6442,-5.644,-5.6571,-5.6578,-5.6585,-5.6661,0,0,-5.6606,-5.6609,0,0,0,0,0,0,0,0,-5.6161,-5.6176,-5.6311,-5.6316,-5.632,-5.6414,-5.6388,-5.6503,-5.6446,-5.6398,-5.6441,-5.644,-5.6522,-5.6533,-5.6561,-5.6667,-5.6672,-5.6606,-5.661,-5.6613,-5.6615,0,0,0,0,0,0,0,-5.6154,-5.6171,-5.634,-5.6313,-5.6319,-5.6324,-5.6338,-5.641,-5.6468,-5.6402,-5.6404,-5.642,-5.6524,-5.6555,-5.6565,-5.6674,-5.6606,-5.6612,-5.6616,-5.6619,-5.6848,-5.685,0,0,0,0,0,0,-5.614,-5.6164,-5.6336,-5.6344,-5.6235,-5.633,-5.6346,-5.6386,-5.6467,-5.6478,-5.6421,-5.642,-5.6544,-5.6557,-5.6569,-5.6662,-5.6613,-5.662,-5.6624,-5.6846,-5.6849,-5.6851,0,0,0,0,0,0,-5.6135,-5.6156,-5.633,-5.6255,-5.6277,-5.6336,-5.638,-5.6389,-5.6419,-5.6481,-5.6492,-5.6441,-5.6543,-5.656,-5.6638,-5.6667,-5.6623,-5.6629,-5.6844,-5.6847,-5.685,-5.6849,0,0,0,0,0,0,-5.6129,-5.6154,-5.6183,-5.6255,-5.6281,-5.6396,-5.6382,-5.6393,-5.6431,-5.6432,-5.6503,-5.6513,-5.6543,-5.6627,-5.6645,-5.6676,-5.6635,-5.6841,-5.6845,-5.6849,-5.6847,-5.6852,-5.6856,0,0,0,0,0,-5.612,-5.6177,-5.6184,-5.6205,-5.6319,-5.6398,-5.6413,-5.6446,-5.6434,-5.6463,-5.6504,-5.6511,-5.6662,-5.6635,-5.6655,-5.6688,-5.684,-5.6844,-5.6849,-5.6844,-5.6851,-5.6856,0,0,0,0,0,0,-5.6106,-5.6187,-5.6196,-5.6278,-5.6331,-5.6402,-5.644,-5.6452,-5.6509,-5.6506,-5.6546,-5.6562,-5.6637,-5.6671,-5.664,-5.6766,-5.675,-5.6758,-5.674,-5.6746,-5.6751,-5.6739,-5.664,0,0,0,0,0,-5.6113,-5.617,-5.6238,-5.6304,-5.633,-5.6381,-5.6416,-5.6438,-5.6494,-5.6516,-5.6562,-5.6616,-5.6675,-5.6714,-5.6772,-5.6853,-5.6868,-5.6886,-5.6891,-5.6894,-5.69,-5.6945,-5.6953,-5.6865,-5.6865,-5.6865,0,0,-5.6126,-5.6178,-5.6211,-5.6302,-5.6346,-5.6404,-5.6399,-5.6461,-5.6504,-5.6525,-5.6601,-5.6637,-5.67,-5.6779,-5.6817,-5.681,-5.6928,-5.69,-5.6902,-5.6906,-5.695,-5.6958,-5.6965,-5.6868,-5.6868,-5.6867,0,0,-5.618,-5.6226,-5.6285,-5.6329,-5.6396,-5.6429,-5.6444,-5.6513,-5.6538,-5.6615,-5.6632,-5.6685,-5.6787,-5.683,-5.6866,-5.6939,-5.6947,-5.6957,-5.698,-5.7023,-5.703,-5.7036,-5.706,-5.7068,-5.6964,-5.6964,-5.6964,0,-5.6188,-5.6276,-5.6314,-5.6375,-5.6414,-5.6438,-5.6498,-5.6539,-5.6621,-5.6647,-5.6639,-5.6768,-5.6812,-5.6902,-5.6919,-5.6949,-5.6965,-5.6947,-5.7026,-5.7032,-5.7039,-5.7062,-5.7071,-5.6964,-5.6964,-5.6964,-5.6964,0,-5.6282,-5.6343,-5.6383,-5.6462,-5.6506,-5.6566,-5.6613,-5.6653,-5.6672,-5.6706,-5.6784,-5.6839,-5.6908,-5.6932,-5.6951,-5.7025,-5.7018,-5.7018,-5.7002,-5.7047,-5.7069,-5.7078,-5.6965,-5.6965,-5.6965,-5.6965,0,0,-5.6326,-5.6427,-5.6441,-5.6477,-5.6553,-5.6601,-5.6663,-5.6731,-5.6764,-5.6821,-5.6873,-5.696,-5.696,-5.7001,-5.7025,-5.7063,-5.7115,-5.7059,-5.7061,-5.7065,-5.7198,-5.7195,-5.7205,-5.7123,-5.7125,-5.7127,-5.7192,0,-5.6387,-5.6497,-5.6534,-5.6625,-5.6681,-5.6706,-5.676,-5.6813,-5.6847,-5.69,-5.6939,-5.6998,-5.6996,-5.702,-5.706,-5.71,-5.7142,-5.7097,-5.717,-5.7172,-5.7149,-5.7217,-5.7214,-5.7272,-5.7201,-5.7203,-5.7204,0,-5.6471,-5.6529,-5.6626,-5.6696,-5.6721,-5.6768,-5.6834,-5.6885,-5.6945,-5.6968,-5.7014,-5.7036,-5.7101,-5.7085,-5.7174,-5.7143,-5.7176,-5.7201,-5.7204,-5.7209,-5.7188,-5.7221,-5.7292,-5.73,-5.7218,-5.7217,-5.7216,0,-5.649,-5.6593,-5.6664,-5.6695,-5.6778,-5.6811,-5.6847,-5.6906,-5.6945,-5.7004,-5.7029,-5.7095,-5.7129,-5.7179,-5.7218,-5.7203,-5.7304,-5.7291,-5.7323,-5.7322,-5.734,-5.7337,-5.7414,-5.7367,-5.7366,-5.7366,-5.7366,0,-5.6551,-5.6609,-5.6674,-5.6717,-5.6783,-5.6825,-5.6889,-5.6927,-5.6979,-5.703,-5.7057,-5.7104,-5.7155,-5.7209,-5.724,-5.7308,-5.7325,-5.7344,-5.7351,-5.7339,-5.7337,-5.7359,-5.7354,-5.7369,-5.7368,-5.7368,-5.7367,0,-5.6582,-5.6628,-5.6707,-5.678,-5.68,-5.6845,-5.6908,-5.6951,-5.6988,-5.7052,-5.7069,-5.7127,-5.7192,-5.7237,-5.732,-5.7342,-5.7415,-5.7423,-5.7394,-5.7397,-5.7425,-5.7421,-5.7516,-5.753,-5.7476,-5.7476,-5.7477,0,-5.6616,-5.6661,-5.674,-5.6776,-5.6812,-5.6871,-5.6911,-5.6956,-5.6996,-5.7069,-5.7103,-5.7171,-5.7226,-5.7329,-5.7378,-5.7442,-5.745,-5.7479,-5.7459,-5.7446,-5.7447,-5.7442,-5.7446,-5.748,-5.7481,-5.7481,-5.7481,0,-5.6671,-5.6692,-5.6749,-5.6815,-5.6862,-5.6916,-5.697,-5.6998,-5.7053,-5.7097,-5.7164,-5.7207,-5.7293,-5.7359,-5.7428,-5.7465,-5.7482,-5.7488,-5.7498,-5.7485,-5.7465,-5.7474,-5.7399,-5.7484,-5.7484,-5.7484,-5.7484,-5.7484,-5.6703,-5.6743,-5.6805,-5.6868,-5.6914,-5.6964,-5.7008,-5.7051,-5.7108,-5.7181,-5.7204,-5.7273,-5.7334,-5.7429,-5.7467,-5.7522,-5.752,-5.7535,-5.7538,-5.7541,-5.7539,-5.746,-5.7535,-5.7535,-5.7535,-5.7535,-5.7535,0,-5.6757,-5.6798,-5.6856,-5.6931,-5.698,-5.6994,-5.7055,-5.7095,-5.7156,-5.7211,-5.7266,-5.7343,-5.7407,-5.7462,-5.7529,-5.7562,-5.7571,-5.7578,-5.7574,-5.7582,-5.7539,-5.7522,-5.7569,-5.7569,-5.7569,-5.7569,-5.7569,-5.7569,-5.679,-5.6859,-5.6888,-5.6981,-5.7022,-5.709,-5.7123,-5.717,-5.7214,-5.7299,-5.7353,-5.7389,-5.7444,-5.7516,-5.7575,-5.759,-5.7612,-5.7616,-5.7632,-5.759,-5.7585,-5.7581,-5.7565,-5.7622,-5.7622,-5.7671,-5.7672,-5.7672]},{"header":{"parameterUnit":"m.s-1","parameterCategory":1,"la1":30.2991,"la2":30.254,"lo1":-89.0895,"lo2":-89.0444,"dy":0.0017,"dx":0.0017,"nx":28,"ny":28,"refTime":"2025-01-04T03:00:00:Z","depth":0,"parameterNumber":3,"parameterNumberName":"V-component_of_WINDS"},"data":[0,0,0,0,0,0,0,0,0,0,0,0,0,0,0,0,0,0,0,0,0,0,0,0,0,0,0,0,0,0,0,0,0,0,0,0,0,0,0,0,0,0,0,0,0,0,0,0,0,0,0,0,0,0,0,0,0,0,4.1807,4.1809,0,4.1992,4.1994,4.1996,4.2007,4.2005,4.2003,4.2001,4.2191,4.2197,4.2204,0,0,0,0,0,0,0,0,0,0,0,0,0,4.1465,4.1472,4.1807,4.1809,4.1811,4.1992,4.1994,4.1997,4.2007,4.2005,4.2002,4.2,4.2188,4.2197,4.2205,0,0,0,0,0,0,0,0,0,0,0,0,0,4.1628,4.1474,4.1806,4.1838,4.1843,4.1991,4.1994,4.1997,4.2008,4.2005,4.2002,4.1999,4.2186,4.2196,4.2206,4.2335,0,0,4.2238,4.2243,0,0,0,0,0,0,0,0,4.1619,4.1641,4.1831,4.1836,4.1842,4.1973,4.1943,4.2111,4.2009,4.1945,4.2001,4.1997,4.2121,4.2136,4.2178,4.2344,4.2352,4.2239,4.2246,4.225,4.2253,0,0,0,0,0,0,0,4.1608,4.1633,4.188,4.1834,4.1841,4.1845,4.1864,4.1975,4.2049,4.1951,4.1952,4.1974,4.2123,4.2168,4.2183,4.2355,4.2239,4.2248,4.2255,4.2259,4.2639,4.2643,0,0,0,0,0,0,4.159,4.1624,4.1874,4.1886,4.172,4.1853,4.1875,4.1934,4.2047,4.2062,4.1976,4.1973,4.2152,4.217,4.2189,4.235,4.225,4.226,4.2266,4.2636,4.264,4.2644,0,0,0,0,0,0,4.1583,4.1612,4.1867,4.1755,4.1788,4.1863,4.1929,4.194,4.1984,4.2067,4.208,4.2008,4.215,4.2175,4.23,4.2357,4.2265,4.2274,4.2631,4.2637,4.2642,4.2671,0,0,0,0,0,0,4.1573,4.161,4.1658,4.1756,4.1794,4.1973,4.1932,4.1946,4.2003,4.2001,4.21,4.2114,4.2149,4.2284,4.231,4.237,4.2283,4.2626,4.2634,4.264,4.2665,4.2676,4.2686,0,0,0,0,0,4.1561,4.1658,4.1661,4.1691,4.1856,4.1976,4.1997,4.2036,4.2007,4.2058,4.2111,4.2111,4.2346,4.2296,4.2326,4.239,4.2623,4.2632,4.264,4.266,4.2674,4.2686,0,0,0,0,0,0,4.1564,4.1671,4.1675,4.1807,4.1882,4.1977,4.2042,4.2049,4.2134,4.2129,4.2173,4.2196,4.232,4.2367,4.231,4.2522,4.2482,4.2496,4.2487,4.2501,4.2511,4.2498,4.2291,0,0,0,0,0,4.158,4.1668,4.1757,4.1865,4.1903,4.1966,4.202,4.2043,4.2123,4.2155,4.2217,4.2295,4.2387,4.2447,4.2535,4.2672,4.2695,4.2731,4.2742,4.275,4.2762,4.2842,4.2859,4.2672,4.2672,4.2672,0,0,4.1614,4.1684,4.1736,4.1868,4.1929,4.202,4.1992,4.2089,4.2158,4.217,4.2292,4.2341,4.2431,4.2563,4.2625,4.2606,4.282,4.2761,4.2767,4.2775,4.2852,4.287,4.2886,4.2678,4.2677,4.2676,0,0,4.1723,4.1783,4.1881,4.1944,4.2038,4.208,4.2103,4.2199,4.2232,4.2356,4.2367,4.245,4.2607,4.2672,4.2725,4.2863,4.2867,4.2891,4.2947,4.3024,4.3039,4.3052,4.3104,4.3121,4.2903,4.2903,4.2903,0,4.1753,4.1891,4.1931,4.2029,4.2088,4.2103,4.2204,4.2263,4.2381,4.2422,4.24,4.2599,4.2661,4.281,4.2844,4.2886,4.2916,4.2879,4.3033,4.3047,4.306,4.311,4.3129,4.2905,4.2905,4.2905,4.2905,0,4.1925,4.202,4.2088,4.2203,4.227,4.2368,4.2425,4.2488,4.2507,4.2552,4.2679,4.2754,4.286,4.2898,4.2916,4.3051,4.3037,4.3024,4.2984,4.308,4.3127,4.3147,4.2909,4.2908,4.2907,4.2907,0,0,4.2038,4.2177,4.2201,4.2255,4.2361,4.2437,4.2538,4.2642,4.2696,4.2778,4.2865,4.2999,4.2989,4.305,4.3076,4.3143,4.3252,4.3123,4.3126,4.3146,4.3408,4.3418,4.3439,4.3255,4.3259,4.3262,4.3401,0,4.216,4.234,4.2381,4.2536,4.2627,4.2645,4.2733,4.2809,4.2855,4.2939,4.299,4.3085,4.3063,4.3101,4.3168,4.3224,4.3305,4.3214,4.3338,4.3342,4.3316,4.3464,4.3474,4.3602,4.342,4.3423,4.3425,0,4.2326,4.2413,4.2577,4.2675,4.2715,4.2793,4.2894,4.2974,4.3062,4.3091,4.3161,4.3181,4.3289,4.3245,4.3395,4.3333,4.3386,4.3422,4.3428,4.3442,4.339,4.3483,4.3643,4.3663,4.3455,4.3452,4.345,0,4.2395,4.2553,4.2673,4.2718,4.2835,4.289,4.2941,4.3026,4.3087,4.3176,4.3217,4.3317,4.3372,4.3449,4.3497,4.346,4.3646,4.3604,4.3674,4.3673,4.3712,4.3709,4.3885,4.3745,4.3745,4.3744,4.3744,0,4.2527,4.2627,4.2706,4.278,4.2894,4.2941,4.3053,4.3104,4.318,4.3266,4.3287,4.3367,4.3425,4.3514,4.3553,4.3673,4.3697,4.3725,4.3734,4.3724,4.3721,4.376,4.3753,4.3749,4.3748,4.3747,4.3746,0,4.2623,4.2679,4.2812,4.2912,4.294,4.302,4.3107,4.318,4.3228,4.3336,4.3364,4.3439,4.3545,4.36,4.3732,4.3758,4.3895,4.3898,4.3865,4.3869,4.3937,4.3931,4.4145,4.4177,4.4014,4.4015,4.4017,0,4.2704,4.2782,4.2892,4.2951,4.3004,4.3098,4.3162,4.3212,4.3278,4.3386,4.3447,4.3554,4.3643,4.3812,4.3878,4.398,4.3987,4.4056,4.4003,4.3991,4.3991,4.3986,4.3996,4.4065,4.4066,4.4068,4.4069,0,4.2843,4.2868,4.2958,4.306,4.3136,4.3218,4.33,4.3347,4.3411,4.3484,4.3594,4.3662,4.3799,4.3906,4.4014,4.4068,4.4081,4.4085,4.4107,4.4098,4.4076,4.4091,4.3892,4.408,4.4079,4.4078,4.4077,4.4077,4.2935,4.3007,4.3096,4.3198,4.3265,4.3342,4.3417,4.3474,4.3566,4.3681,4.3706,4.3822,4.3912,4.4058,4.4116,4.4208,4.4195,4.4226,4.4234,4.4241,4.4246,4.4061,4.4228,4.4228,4.4227,4.4227,4.4227,0,4.3077,4.3136,4.3229,4.3344,4.3424,4.3429,4.3521,4.3588,4.369,4.3772,4.386,4.3987,4.4092,4.4168,4.4276,4.4336,4.4345,4.4363,4.4359,4.4373,4.425,4.4222,4.4354,4.4354,4.4354,4.4354,4.4354,4.4354,4.316,4.3282,4.3319,4.3476,4.3535,4.3649,4.3702,4.3773,4.384,4.3981,4.4069,4.4118,4.4199,4.4314,4.4411,4.4431,4.4471,4.4489,4.4509,4.4394,4.4381,4.4368,4.4341,4.4496,4.4497,4.4624,4.4625,4.4626]}]]